Location: Belvedere Heights
(33.9836°N, 117.3109°W)
Time: 09:32:07
(UTC+00:00)

IKONOS-2 - Pass Details

Date: 21 March 2023
Orbit: 594 x 603 km, 98.2° (Epoch: 01 June)

Event Time Altitude Azimuth Distance (km) Brightness Sun altitude
Rises 12:58:28 0° 169° (S) 2,835 8.0 -11.8°
Reaches altitude 10° 13:00:37 10° 170° (S) 1,935 7.1 -11.4°
Maximum altitude 13:04:49 80° 257° (WSW) 613 4.4 -10.5°
Drops below altitude 10° 13:09:03 10° 345° (NNW) 1,942 7.0 -9.7°
Sets 13:11:13 0° 347° (NNW) 2,847 7.9 -9.2°
